Daily Bio-Meteorological Summary

Last 30 Days

Daily Data | America/Los_Angeles
as of 5/22/22 3:41 PM PDT
Date Daily Max Temp (°F) Daily Min Temp (°F) Daily Rain (In) GDDs (DL) GDDs (Mx/Mn) Seas GDDs (DL) Seas GDDs (Smpl) Chilling <=45F (hrs) Chill Hrs 32-45F (hrs) Utah Chilling (Units) Chill Portions Hrs 70-85F (hrs) Hrs > 95F (hrs) Powdery Mildew Stress (pts) Bee Hrs Today (Hrs) Hrs <= 32F (hrs) Hrs <= 28F (hrs)
5/21/22 89.1 46.2 0.00 18.5 17.6 722 711 0.0 0.0 0.0 - 4.42 0.00 40 12.5 0.0 0.0
5/20/22 83.8 52.0 0.00 18.7 17.9 703 693 0.0 0.0 0.5 - 10.19 0.00 50 13.6 0.0 0.0
5/19/22 97.2 57.8 0.00 27.8 27.5 684 676 0.0 0.0 -18.5 - 2.61 1.75 30 13.5 0.0 0.0
5/18/22 94.2 53.9 0.00 24.1 24.0 657 648 0.0 0.0 -17.5 - 3.42 0.00 40 13.1 0.0 0.0
5/17/22 87.6 51.7 0.00 19.8 19.7 633 624 0.0 0.0 -15.5 - 5.41 0.00 50 12.8 0.0 0.0
5/16/22 88.5 58.1 0.00 21.4 23.3 613 604 0.0 0.0 0.0 - 5.16 0.00 60 13.5 0.0 0.0
5/15/22 94.8 54.8 0.00 26.2 24.8 592 581 0.0 0.0 -18.0 - 4.46 0.00 70 13.5 0.0 0.0
5/14/22 91.9 49.9 0.00 21.5 20.9 565 556 0.0 0.0 -13.5 - 3.64 0.00 80 12.6 0.0 0.0
5/13/22 84.2 41.5 0.00 15.2 12.8 544 535 3.7 3.7 0.0 - 9.66 0.00 90 11.8 0.0 0.0
5/12/22 78.2 39.1 0.00 11.9 8.6 529 522 5.4 5.4 1.5 - 8.48 0.00 70 11.6 0.0 0.0
5/11/22 72.1 39.6 0.00 7.8 5.8 517 514 4.8 4.8 2.5 - 2.31 0.00 50 10.1 0.0 0.0
5/10/22 70.4 42.5 0.00 6.7 6.4 509 508 4.6 4.6 2.0 - 0.08 0.00 60 10.1 0.0 0.0
5/9/22 68.3 40.6 0.00 5.8 4.5 502 502 3.1 3.1 4.5 - 0.00 0.00 70 9.8 0.0 0.0
5/8/22 73.5 47.1 0.00 9.9 10.3 496 497 0.0 0.0 1.0 - 3.60 0.00 80 11.3 0.0 0.0
5/7/22 80.6 53.6 0.00 15.8 17.1 487 487 0.0 0.0 0.0 - 8.70 0.00 90 13.3 0.0 0.0
5/6/22 87.6 51.5 0.00 19.8 19.5 471 470 0.0 0.0 -15.0 - 4.91 0.00 70 12.4 0.0 0.0
5/5/22 93.9 51.2 0.00 23.3 22.6 451 450 0.0 0.0 -16.5 - 2.45 0.00 80 12.3 0.0 0.0
5/4/22 91.7 47.4 0.00 19.2 19.6 428 428 0.0 0.0 0.0 - 3.52 0.00 90 12.0 0.0 0.0
5/3/22 80.6 48.2 0.00 13.4 14.4 408 408 0.0 0.0 0.5 - 8.47 0.00 100 11.7 0.0 0.0
5/2/22 85.1 48.2 0.00 17.3 16.6 395 394 0.0 0.0 0.0 - 10.61 0.00 100 12.1 0.0 0.0
5/1/22 81.2 48.5 0.00 13.6 14.8 378 377 0.0 0.0 0.0 - 7.79 0.00 100 11.5 0.0 0.0
4/30/22 85.2 45.2 0.00 16.8 15.2 364 362 0.0 0.0 -9.5 - 10.47 0.00 100 11.8 0.0 0.0
4/29/22 78.7 41.8 0.00 11.3 10.3 347 347 3.0 3.0 1.0 74 7.70 0.00 100 11.0 0.0 0.0
4/28/22 76.9 45.5 0.00 9.8 11.2 336 337 0.0 0.0 1.5 74 5.74 0.00 90 10.8 0.0 0.0
4/27/22 83.1 47.7 0.00 13.2 15.4 326 326 0.0 0.0 1.0 74 8.55 0.00 100 11.4 0.0 0.0
4/26/22 80.8 49.1 0.00 15.6 14.9 313 310 0.0 0.0 0.0 74 9.68 0.00 100 12.2 0.0 0.0
4/25/22 91.1 46.8 0.00 17.9 18.9 298 295 0.0 0.0 0.0 74 4.15 0.00 80 11.7 0.0 0.0
4/24/22 83.4 44.9 0.00 14.1 14.1 280 276 0.0 0.0 0.0 74 9.07 0.00 90 11.4 0.0 0.0
4/23/22 76.2 40.7 0.00 9.4 8.4 265 262 5.2 5.2 1.5 74 4.89 0.00 70 10.4 0.0 0.0
4/22/22 69.2 46.0 0.18 5.6 7.6 256 254 0.0 0.0 2.5 73 0.00 0.00 80 9.0 0.0 0.0
Max 97.2 58.1 0.18 27.8 27.5 - - 5.4 5.4 4.5 74 10.61 1.75 - 13.6 0.0 0.0
Avg - - - 15.7 15.5 - - 1.0 1.0 -3.5 74 5.67 0.06 - 11.8 0.0 0.0
Min 68.3 39.1 0.00 5.6 4.5 - - 0.0 0.0 -18.5 73 0.00 0.00 - 9.0 0.0 0.0
Total - - - 471.2 465.0 - - 29.7 29.7 -104.0 - 170.14 1.75 - 354.8 0.0 0.0